Location: *
(53.9002°N, 27.5624°E)
Time: 02:47:52
(UTC+00:00)

CZ-4 R/B - Pass Details

Date: 12 November 2019
Orbit: 529 x 601 km, 97.8° (Epoch: 08 December)

Event Time Altitude Azimuth Distance (km) Brightness Sun altitude
Rises 16:54:00 0° 186° (S) 2,828 5.0 -23.1°
Reaches altitude 10° 16:56:19 10° 195° (SSW) 1,923 4.2 -23.4°
Maximum altitude 17:00:11 37° 263° (W) 931 3.0 -24.0°
Drops below altitude 10° 17:04:02 10° 331° (NNW) 1,905 4.4 -24.5°
Sets 17:06:19 0° 340° (NNW) 2,797 5.2 -24.9°
